Location: ????????
(60.4333°N, 46.4710°E)
Time: 19:23:13
(UTC+00:00)

NOAA 12 - Pass Details

Date: 25 November 2020
Orbit: 795 x 816 km, 98.5° (Epoch: 16 January)

Event Time Altitude Azimuth Distance (km) Brightness Sun altitude
Rises 13:44:12 0° 157° (SSE) 3,337 7.3 -11.3°
Reaches altitude 10° 13:46:32 10° 157° (SSE) 2,408 6.6 -11.6°
Maximum altitude 13:51:53 85° 69° (ENE) 827 4.1 -12.2°
Drops below altitude 10° 13:57:14 10° 343° (NNW) 2,415 6.6 -12.8°
Sets 13:59:35 0° 343° (NNW) 3,348 7.3 -13.1°
